GLD879 SNAG-SNJP

Flight info

Callsign GLD879
Flight time 0h 50m
Altitude 5500
Route DCT 1826S04730W 1757S04651W 1745S04632W DCT
Aircraft BE35/M-SDFGIRY/S

Departure

Time 2026-05-04 23:50
Airport Araguari Airport (SNAG)

Arrival

Time 2026-05-05 00:40
Airport João Pinheiro Airport (SNJP)
Time Latitude Longitude Altitude Speed Heading
2026-05-04 23:39 -18.66313 -48.18825 3131 ft 0 kts 121°
2026-05-04 23:44 -18.66311 -48.18830 3127 ft 3 kts 118°
2026-05-04 23:44 -18.66301 -48.18834 3127 ft 2 kts 222°
2026-05-04 23:44 -18.66300 -48.18832 3127 ft 0 kts 215°
2026-05-04 23:45 -18.66302 -48.18834 3127 ft 1 kts 214°
2026-05-04 23:45 -18.66320 -48.18841 3127 ft 5 kts 179°
2026-05-04 23:46 -18.66354 -48.18810 3131 ft 9 kts 118°
2026-05-04 23:46 -18.66383 -48.18775 3131 ft 10 kts 160°
2026-05-04 23:46 -18.66458 -48.18809 3132 ft 14 kts 216°
2026-05-04 23:46 -18.66544 -48.18871 3134 ft 16 kts 213°
2026-05-04 23:47 -18.66653 -48.18944 3132 ft 21 kts 212°
2026-05-04 23:47 -18.66783 -48.19035 3131 ft 24 kts 214°
2026-05-04 23:47 -18.66932 -48.19135 3127 ft 27 kts 211°
2026-05-04 23:47 -18.67086 -48.19237 3125 ft 25 kts 213°
2026-05-04 23:48 -18.67231 -48.19336 3124 ft 24 kts 213°
2026-05-04 23:48 -18.67353 -48.19407 3125 ft 8 kts 208°
2026-05-04 23:48 -18.67353 -48.19424 3126 ft 4 kts
2026-05-04 23:48 -18.67333 -48.19407 3125 ft 0 kts 34°
2026-05-04 23:49 -18.67315 -48.19394 3124 ft 25 kts 32°
2026-05-04 23:49 -18.66921 -48.19124 3129 ft 101 kts 32°
2026-05-04 23:49 -18.66266 -48.18671 3363 ft 120 kts 35°
2026-05-04 23:50 -18.65503 -48.18208 3571 ft 133 kts 30°
2026-05-04 23:50 -18.64688 -48.17639 3767 ft 149 kts 51°
2026-05-04 23:50 -18.64439 -48.16561 3973 ft 164 kts 98°
2026-05-04 23:50 -18.64992 -48.15467 4194 ft 173 kts 119°
2026-05-04 23:51 -18.65203 -48.14248 4395 ft 172 kts 78°
2026-05-04 23:51 -18.64833 -48.13061 4592 ft 169 kts 68°
2026-05-04 23:51 -18.64405 -48.11909 4779 ft 168 kts 68°
2026-05-04 23:51 -18.64001 -48.10744 4977 ft 172 kts 70°
2026-05-04 23:52 -18.63606 -48.09572 5167 ft 170 kts 70°
2026-05-04 23:52 -18.63212 -48.08389 5349 ft 168 kts 70°
2026-05-04 23:52 -18.62814 -48.07207 5436 ft 174 kts 70°
2026-05-04 23:52 -18.62404 -48.06009 5438 ft 173 kts 70°
2026-05-04 23:53 -18.62004 -48.04821 5441 ft 175 kts 70°
2026-05-04 23:53 -18.61589 -48.03617 5440 ft 175 kts 70°
2026-05-04 23:53 -18.61179 -48.02395 5447 ft 178 kts 71°
2026-05-04 23:53 -18.60760 -48.01155 5420 ft 177 kts 70°
2026-05-04 23:54 -18.60350 -47.99942 5438 ft 176 kts 71°
2026-05-04 23:54 -18.59925 -47.98703 5414 ft 180 kts 70°
2026-05-04 23:54 -18.59500 -47.97460 5424 ft 184 kts 71°
2026-05-04 23:54 -18.59078 -47.96188 5415 ft 180 kts 70°
2026-05-04 23:55 -18.58658 -47.94968 5415 ft 175 kts 70°
2026-05-04 23:55 -18.58253 -47.93770 5411 ft 170 kts 70°
2026-05-04 23:55 -18.57449 -47.91398 5429 ft 175 kts 70°
2026-05-04 23:56 -18.57045 -47.90212 5419 ft 173 kts 71°
2026-05-04 23:56 -18.56635 -47.88998 5427 ft 176 kts 70°
2026-05-04 23:56 -18.56229 -47.87805 5421 ft 174 kts 70°
2026-05-04 23:56 -18.55819 -47.86596 5424 ft 173 kts 70°
2026-05-04 23:57 -18.55413 -47.85405 5427 ft 173 kts 70°
2026-05-04 23:57 -18.55007 -47.84213 5416 ft 174 kts 70°
2026-05-04 23:57 -18.54601 -47.83018 5434 ft 175 kts 70°
2026-05-04 23:57 -18.54188 -47.81802 5426 ft 174 kts 71°
2026-05-04 23:58 -18.53779 -47.80622 5424 ft 171 kts 71°
2026-05-04 23:58 -18.53384 -47.79434 5432 ft 175 kts 70°
2026-05-04 23:58 -18.52971 -47.78227 5427 ft 174 kts 71°
2026-05-04 23:58 -18.52561 -47.77021 5431 ft 174 kts 70°
2026-05-04 23:59 -18.52150 -47.75819 5430 ft 171 kts 70°
2026-05-04 23:59 -18.51753 -47.74654 5434 ft 170 kts 71°
2026-05-04 23:59 -18.51346 -47.73462 5424 ft 171 kts 70°
2026-05-04 23:59 -18.50944 -47.72284 5425 ft 172 kts 71°
2026-05-05 00:00 -18.50539 -47.71090 5431 ft 174 kts 70°
2026-05-05 00:00 -18.50404 -47.70692 5429 ft 175 kts 70°
2026-05-05 00:00 -18.49718 -47.68684 5430 ft 173 kts 70°
2026-05-05 00:00 -18.49312 -47.67500 5423 ft 172 kts 70°
2026-05-05 00:01 -18.48909 -47.66313 5425 ft 170 kts 71°
2026-05-05 00:01 -18.48507 -47.65131 5434 ft 173 kts 70°
2026-05-05 00:01 -18.48095 -47.63931 5428 ft 171 kts 70°
2026-05-05 00:01 -18.47702 -47.62768 5437 ft 171 kts 70°
2026-05-05 00:02 -18.47293 -47.61574 5432 ft 174 kts 71°
2026-05-05 00:02 -18.46874 -47.60358 5436 ft 176 kts 70°
2026-05-05 00:02 -18.46466 -47.59155 5435 ft 174 kts 70°
2026-05-05 00:02 -18.46060 -47.57964 5436 ft 174 kts 71°
2026-05-05 00:03 -18.45647 -47.56756 5440 ft 175 kts 71°
2026-05-05 00:03 -18.45239 -47.55575 5422 ft 169 kts 70°
2026-05-05 00:03 -18.44844 -47.54417 5428 ft 167 kts 71°
2026-05-05 00:03 -18.44452 -47.53275 5430 ft 163 kts 70°
2026-05-05 00:04 -18.44068 -47.52145 5426 ft 166 kts 70°
2026-05-05 00:04 -18.43673 -47.50988 5430 ft 167 kts 70°
2026-05-05 00:04 -18.43241 -47.49863 5436 ft 167 kts 60°
2026-05-05 00:04 -18.42542 -47.48865 5432 ft 169 kts 51°
2026-05-05 00:05 -18.41791 -47.47904 5435 ft 172 kts 53°
2026-05-05 00:05 -18.41052 -47.46924 5439 ft 175 kts 52°
2026-05-05 00:05 -18.40300 -47.45908 5445 ft 174 kts 53°
2026-05-05 00:05 -18.39564 -47.44907 5432 ft 170 kts 53°
2026-05-05 00:06 -18.38838 -47.43928 5443 ft 169 kts 53°
2026-05-05 00:06 -18.38116 -47.42954 5432 ft 169 kts 53°
2026-05-05 00:06 -18.37401 -47.41979 5444 ft 169 kts 54°
2026-05-05 00:06 -18.36669 -47.40991 5434 ft 173 kts 53°
2026-05-05 00:07 -18.35927 -47.40005 5439 ft 171 kts 53°
2026-05-05 00:07 -18.35194 -47.39014 5445 ft 173 kts 53°
2026-05-05 00:07 -18.34448 -47.38001 5442 ft 174 kts 53°
2026-05-05 00:07 -18.33712 -47.37006 5440 ft 172 kts 53°
2026-05-05 00:08 -18.32967 -47.36008 5436 ft 174 kts 54°
2026-05-05 00:08 -18.32229 -47.35007 5445 ft 171 kts 53°
2026-05-05 00:08 -18.31501 -47.34009 5440 ft 175 kts 54°
2026-05-05 00:08 -18.30748 -47.33012 5425 ft 171 kts 53°
2026-05-05 00:09 -18.30004 -47.32013 5442 ft 174 kts 53°
2026-05-05 00:09 -18.29246 -47.31012 5437 ft 174 kts 53°
2026-05-05 00:09 -18.28529 -47.30018 5435 ft 168 kts 54°
2026-05-05 00:09 -18.27814 -47.29048 5432 ft 167 kts 53°
2026-05-05 00:10 -18.27093 -47.28084 5442 ft 167 kts 53°
2026-05-05 00:10 -18.26384 -47.27128 5441 ft 167 kts 54°
2026-05-05 00:10 -18.25650 -47.26143 5450 ft 172 kts 54°
2026-05-05 00:10 -18.24911 -47.25141 5435 ft 172 kts 53°
2026-05-05 00:11 -18.24170 -47.24154 5432 ft 173 kts 53°
2026-05-05 00:11 -18.23432 -47.23162 5441 ft 170 kts 53°
2026-05-05 00:11 -18.22696 -47.22166 5436 ft 172 kts 53°
2026-05-05 00:11 -18.21960 -47.21177 5454 ft 174 kts 53°
2026-05-05 00:12 -18.21211 -47.20171 5452 ft 177 kts 53°
2026-05-05 00:12 -18.20455 -47.19152 5435 ft 174 kts 53°
2026-05-05 00:12 -18.19697 -47.18137 5428 ft 175 kts 54°
2026-05-05 00:12 -18.18971 -47.17148 5431 ft 169 kts 53°
2026-05-05 00:13 -18.18245 -47.16176 5438 ft 166 kts 53°
2026-05-05 00:13 -18.17529 -47.15216 5440 ft 170 kts 53°
2026-05-05 00:13 -18.16793 -47.14230 5427 ft 169 kts 53°
2026-05-05 00:13 -18.16066 -47.13250 5435 ft 168 kts 53°
2026-05-05 00:14 -18.15356 -47.12295 5437 ft 166 kts 53°
2026-05-05 00:14 -18.14632 -47.11325 5440 ft 169 kts 53°
2026-05-05 00:14 -18.13907 -47.10353 5440 ft 171 kts 53°
2026-05-05 00:14 -18.13159 -47.09344 5450 ft 177 kts 53°
2026-05-05 00:15 -18.12401 -47.08325 5454 ft 176 kts 53°
2026-05-05 00:15 -18.11652 -47.07324 5434 ft 175 kts 53°
2026-05-05 00:15 -18.10904 -47.06321 5433 ft 175 kts 53°
2026-05-05 00:15 -18.10149 -47.05298 5447 ft 176 kts 53°
2026-05-05 00:16 -18.09398 -47.04293 5432 ft 171 kts 53°
2026-05-05 00:16 -18.08665 -47.03313 5443 ft 175 kts 53°
2026-05-05 00:16 -18.08160 -47.02631 5434 ft 175 kts 53°
2026-05-05 00:16 -18.07157 -47.01285 5434 ft 175 kts 53°
2026-05-05 00:17 -18.06652 -47.00609 5435 ft 174 kts 53°
2026-05-05 00:17 -18.05907 -46.99612 5427 ft 176 kts 53°
2026-05-05 00:17 -18.05158 -46.98603 5430 ft 173 kts 53°
2026-05-05 00:17 -18.04421 -46.97615 5428 ft 170 kts 53°
2026-05-05 00:18 -18.03688 -46.96643 5426 ft 168 kts 53°
2026-05-05 00:18 -18.02964 -46.95665 5426 ft 168 kts 54°
2026-05-05 00:18 -18.02250 -46.94696 5443 ft 170 kts 54°
2026-05-05 00:18 -18.01497 -46.93699 5440 ft 174 kts 52°
2026-05-05 00:19 -18.00760 -46.92713 5445 ft 173 kts 53°
2026-05-05 00:19 -18.00015 -46.91709 5431 ft 171 kts 53°
2026-05-05 00:19 -17.99286 -46.90740 5436 ft 171 kts 52°
2026-05-05 00:19 -17.98545 -46.89748 5441 ft 173 kts 53°
2026-05-05 00:20 -17.97813 -46.88765 5444 ft 170 kts 53°
2026-05-05 00:20 -17.97070 -46.87770 5444 ft 173 kts 53°
2026-05-05 00:20 -17.96331 -46.86783 5428 ft 169 kts 53°
2026-05-05 00:20 -17.95612 -46.85816 5423 ft 166 kts 53°
2026-05-05 00:21 -17.94897 -46.84854 5446 ft 170 kts 55°
2026-05-05 00:21 -17.94235 -46.83811 5430 ft 172 kts 58°
2026-05-05 00:21 -17.93587 -46.82754 5425 ft 172 kts 58°
2026-05-05 00:21 -17.92932 -46.81714 5424 ft 171 kts 57°
2026-05-05 00:22 -17.92275 -46.80677 5430 ft 170 kts 58°
2026-05-05 00:22 -17.91627 -46.79645 5437 ft 173 kts 58°
2026-05-05 00:22 -17.90958 -46.78595 5431 ft 170 kts 57°
2026-05-05 00:22 -17.90307 -46.77556 5431 ft 172 kts 58°
2026-05-05 00:23 -17.89647 -46.76506 5428 ft 172 kts 58°
2026-05-05 00:23 -17.89021 -46.75514 5431 ft 171 kts 57°
2026-05-05 00:23 -17.88358 -46.74464 5437 ft 175 kts 58°
2026-05-05 00:23 -17.87675 -46.73384 5436 ft 177 kts 58°
2026-05-05 00:24 -17.87004 -46.72321 5424 ft 175 kts 58°
2026-05-05 00:24 -17.86341 -46.71270 5433 ft 171 kts 58°
2026-05-05 00:24 -17.85676 -46.70218 5429 ft 173 kts 58°
2026-05-05 00:24 -17.85020 -46.69180 5425 ft 172 kts 58°
2026-05-05 00:25 -17.84367 -46.68147 5423 ft 170 kts 58°
2026-05-05 00:25 -17.83706 -46.67099 5421 ft 171 kts 58°
2026-05-05 00:25 -17.83051 -46.66059 5423 ft 173 kts 58°
2026-05-05 00:25 -17.82390 -46.65014 5425 ft 170 kts 57°
2026-05-05 00:26 -17.81731 -46.63976 5418 ft 170 kts 58°
2026-05-05 00:26 -17.81073 -46.62937 5422 ft 168 kts 58°
2026-05-05 00:26 -17.80435 -46.61923 5424 ft 168 kts 58°
2026-05-05 00:26 -17.79783 -46.60891 5423 ft 170 kts 58°
2026-05-05 00:27 -17.79124 -46.59851 5423 ft 172 kts 57°
2026-05-05 00:27 -17.78467 -46.58809 5424 ft 171 kts 58°
2026-05-05 00:27 -17.77808 -46.57772 5429 ft 172 kts 58°
2026-05-05 00:27 -17.77142 -46.56719 5425 ft 172 kts 57°
2026-05-05 00:28 -17.76481 -46.55673 5440 ft 176 kts 58°
2026-05-05 00:28 -17.75813 -46.54615 5437 ft 173 kts 58°
2026-05-05 00:28 -17.75198 -46.53551 5420 ft 168 kts 69°
2026-05-05 00:28 -17.75074 -46.52338 5432 ft 173 kts 92°
2026-05-05 00:29 -17.75192 -46.51086 5434 ft 172 kts 96°
2026-05-05 00:29 -17.75320 -46.49806 5433 ft 176 kts 95°
2026-05-05 00:29 -17.75442 -46.48553 5439 ft 172 kts 95°
2026-05-05 00:29 -17.75557 -46.47296 5432 ft 172 kts 95°
2026-05-05 00:30 -17.75670 -46.46043 5430 ft 171 kts 95°
2026-05-05 00:30 -17.75781 -46.44811 5427 ft 170 kts 95°
2026-05-05 00:30 -17.75895 -46.43581 5426 ft 168 kts 95°
2026-05-05 00:30 -17.76007 -46.42364 5427 ft 167 kts 95°
2026-05-05 00:31 -17.76116 -46.41153 5425 ft 166 kts 95°
2026-05-05 00:31 -17.76225 -46.39953 5425 ft 164 kts 95°
2026-05-05 00:31 -17.76336 -46.38760 5430 ft 163 kts 95°
2026-05-05 00:31 -17.76442 -46.37583 5430 ft 163 kts 95°
2026-05-05 00:32 -17.76551 -46.36386 5429 ft 166 kts 95°
2026-05-05 00:32 -17.76661 -46.35155 5430 ft 171 kts 95°
2026-05-05 00:32 -17.76770 -46.33914 5432 ft 174 kts 95°
2026-05-05 00:32 -17.76887 -46.32667 5436 ft 171 kts 95°
2026-05-05 00:33 -17.77001 -46.31429 5444 ft 169 kts 95°
2026-05-05 00:33 -17.77114 -46.30175 5434 ft 174 kts 95°
2026-05-05 00:33 -17.77234 -46.28899 5437 ft 174 kts 95°
2026-05-05 00:33 -17.77346 -46.27641 5435 ft 174 kts 94°
2026-05-05 00:34 -17.77458 -46.26386 5448 ft 173 kts 95°
2026-05-05 00:34 -17.77571 -46.25127 5442 ft 173 kts 94°
2026-05-05 00:34 -17.77685 -46.23861 5450 ft 175 kts 94°
2026-05-05 00:34 -17.77801 -46.22603 5439 ft 174 kts 95°
2026-05-05 00:35 -17.77915 -46.21350 5457 ft 172 kts 94°
2026-05-05 00:35 -17.78024 -46.20086 5439 ft 174 kts 95°
2026-05-05 00:35 -17.78140 -46.18812 5431 ft 171 kts 95°
2026-05-05 00:35 -17.78249 -46.17624 5415 ft 157 kts 95°
2026-05-05 00:36 -17.78352 -46.16526 5427 ft 144 kts 95°
2026-05-05 00:36 -17.78441 -46.15505 5377 ft 141 kts 94°
2026-05-05 00:36 -17.78532 -46.14448 5028 ft 146 kts 95°
2026-05-05 00:36 -17.78631 -46.13361 4682 ft 151 kts 94°
2026-05-05 00:37 -17.78806 -46.12284 4353 ft 150 kts 114°
2026-05-05 00:37 -17.79569 -46.11630 4006 ft 147 kts 162°
2026-05-05 00:37 -17.80513 -46.11855 3937 ft 135 kts 211°
2026-05-05 00:37 -17.81245 -46.12389 3929 ft 124 kts 210°
2026-05-05 00:38 -17.81945 -46.12898 3927 ft 122 kts 210°
2026-05-05 00:38 -17.82596 -46.13439 3902 ft 120 kts 234°
2026-05-05 00:38 -17.82537 -46.14260 3892 ft 119 kts 319°
2026-05-05 00:38 -17.81812 -46.14436 3909 ft 110 kts 20°
2026-05-05 00:39 -17.81091 -46.14112 3725 ft 114 kts 33°
2026-05-05 00:39 -17.80429 -46.13651 3519 ft 113 kts 40°
2026-05-05 00:39 -17.79863 -46.13142 3265 ft 101 kts 44°
2026-05-05 00:39 -17.79358 -46.12628 3127 ft 96 kts 43°
2026-05-05 00:40 -17.78920 -46.12194 2982 ft 73 kts 42°
2026-05-05 00:40 -17.78703 -46.11975 2963 ft 22 kts 43°
2026-05-05 00:40 -17.78604 -46.11912 2960 ft 14 kts 332°
2026-05-05 00:40 -17.78531 -46.11986 2955 ft 12 kts 316°
2026-05-05 00:41 -17.78483 -46.11982 2951 ft 8 kts 107°
2026-05-05 00:41 -17.78489 -46.11971 2952 ft 0 kts 127°
2026-05-05 00:41 -17.78497 -46.11960 2953 ft 0 kts 127°